Weather in Emden

Germany     53°22′05″N   7°12′22″E
temp.,
°C
wind,
m/s
gust,
m/s
humid.,
%
clouds,
%
prec.,
mm/h
press.,
hPa
HPBL,
m
25 february, thu
thu2501:00+10ssw4108926 0.0 1025206
04:00+10ssw410912 0.0 1023202
07:00+10ssw511951 0.0 1023291
10:00+12sw6118533 0.0 1024605
13:00+13wsw7107448 0.0 1025970
16:00+11wnw5882100 0.0 1026714
19:00+7wnw2489100 0.0 1027127
22:00+6wnw2387100 0.0 102979
26 february, fri
fri2601:00+5wnw3583100 0.0 1030120
04:00+4w349066 0.0 103092
07:00+3w369249 0.0 1031107
10:00+7wnw58790 0.0 1033462
13:00+9wnw68630 0.0 10341064
16:00+8nw69700 0.0 1033832
19:00+4wnw49910 0.0 1035235
22:00+3wnw35940 0.0 1036118
27 february, sat
sat2701:00+3wnw35940 0.0 1036106
04:00+2wnw34940 0.0 103691
07:00+2wnw23940 0.0 103743
10:00+6wnw24800 0.0 1037235
13:00+9wnw23640 0.0 1038626
16:00+8nw45700 0.0 1037457
19:00+4nw23900 0.0 103754
22:00+4nw22920 0.0 103822
28 february, sun
sun2801:00+3nw23910 0.0 103823
04:00+3wnw23940 0.0 103623
07:00+3nw22987 0.0 103624
10:00+6nne348899 0.0 1036374
13:00+9ene23650 0.0 1036679
16:00+10ne33640 0.0 1034926
19:00+4ne36830 0.0 1034105
22:00+3ene34810 0.0 103471
1 march, mon
mon101:00+2ene34850 0.0 103471
04:00+2e34930 0.0 103263
07:00+1e34910 0.0 103281
10:00+5e47760 0.0 1032279
13:00+9ese47610 0.0 1031599
16:00+10se466061 0.0 1030722
19:00+5ese337973 0.0 103037
22:00+4ese33815 0.0 103140